Meath Environmental Platform

Observations for Trim Patrick St

Time AQI Temp °C Hum % Pres Pa CO μg/m³ H₂S μg/m³ NO μg/m³ NO₂ μg/m³ O₃ μg/m³ SO₂ μg/m³ PM1 μg/m³ PM2.5 μg/m³ PM10 μg/m³
Friday 31 July 2026
12:41 2 25 38 68,955 0 0 2.11 8.96 68.83 6.54 3.71 8.75 9.63
12:40 2 25 39 68,959 0 0 1.95 10.56 95.35 6.88 2 7.11 7.82
12:39 2 25 39 68,959 0 0 2.05 9.43 84.84 6.96 2 7.13 7.84
12:38 2 25 39 68,957 0 0 1.87 9.46 83.76 7.22 3.71 9.47 10.42
12:37 2 24.9 38 68,953 0 0 1.94 9.21 87.98 6.12 2 8.73 9.6
12:36 2 24.9 39 68,975 0 0 1.89 10.42 90.41 6.48 2.86 8.69 9.56
12:35 2 24.9 38 68,975 0 0 1.9 9.22 95.04 6.34 3.71 8.73 9.61
12:34 2 24.8 38 68,977 0 0 1.97 8.16 69.69 6.87 3.71 9.51 10.46
12:33 2 24.8 38 68,953 0 5.13 1.87 21.62 88.38 7.14 2.86 8.71 9.59
12:32 2 24.8 38 68,945 0 0 1.89 10.08 92.08 6.5 2.86 9.5 10.45
12:31 2 24.8 38 68,967 0 0 1.89 9.02 76.43 6.13 2 7.98 8.78
12:30 2 24.8 39 68,941 0 0 2.2 9.19 96.02 7.06 2.86 7.9 8.69
12:29 2 24.8 38 68,937 0 0 2.25 9.11 81.2 6.76 2.86 8.73 9.6
12:28 2 24.8 38 68,932 0 0 2.26 9.1 101.19 6.58 2 9.53 10.48
12:27 2 24.8 39 68,924 0 0 2.19 9.11 100.73 6.9 2 9.47 10.42
12:26 2 24.8 38 68,914 0 0 2.22 11.93 65.42 7.71 3.71 9.5 10.45
12:25 2 24.8 38 68,904 0 1.33 2.11 9.14 96.25 7.43 2.86 8.72 9.59
12:24 2 24.8 38 68,918 0 0 2.06 9.07 77.32 6.17 2 8.75 9.63
12:23 2 24.8 39 68,906 0 0 1.93 9.12 95.13 7.03 2 7.92 8.71
12:22 2 24.7 39 68,888 0 0 1.84 9.15 100.43 7.04 2 8.67 9.53